When you browse on this site, cookies collect data to enhance your experience and personalize the content and advertising you see.
Visit our Privacy Policy to learn more. By continuing to use the site, you agree to this use of cookies and data.
  • In Latvia
  • List of Countries
  • For 7 days
  • Water Temperature
  • Satellite Maps
  • Weather Map
  • Weather Widgets
  • user-avatar
    Login

    Hourly Weather Wiktoria

    Today, 25 June, Tuesday

    Time Temperature Precipitation Wind Pressure Humidity
    00:00 +4°C° 0 mm 2 mps 763 mmHg 74%
    01:00 +3°C° 0 mm 3 mps 762 mmHg 73%
    02:00 +4°C° 0 mm 2 mps 762 mmHg 70%
    03:00 +4°C° 0 mm 2 mps 763 mmHg 67%
    04:00 +4°C° 0 mm 2 mps 763 mmHg 63%
    05:00 +4°C° 0 mm 2 mps 763 mmHg 62%
    06:00 +4°C° 0 mm 2 mps 763 mmHg 61%
    07:00 +4°C° 0 mm 2 mps 763 mmHg 61%
    08:00 +6°C° 0 mm 1 mps 763 mmHg 60%
    09:00 +8°C° 0 mm 1 mps 763 mmHg 59%
    10:00 +10°C° 0 mm 1 mps 764 mmHg 60%
    11:00 +10°C° 0 mm 2 mps 763 mmHg 60%
    12:00 +13°C° 0 mm 2 mps 763 mmHg 60%
    13:00 +14°C° 0 mm 2 mps 762 mmHg 59%
    14:00 +14°C° 0 mm 2 mps 762 mmHg 64%
    15:00 +14°C° 0 mm 1 mps 762 mmHg 68%
    16:00 +13°C° 0 mm 1 mps 762 mmHg 72%
    17:00 +12°C° 0 mm 1 mps 763 mmHg 76%
    18:00 +10°C° 0 mm 1 mps 763 mmHg 80%
    19:00 +8°C° 0 mm 0 mps 763 mmHg 84%
    20:00 +8°C° 0 mm 1 mps 763 mmHg 84%
    21:00 +8°C° 0 mm 1 mps 764 mmHg 85%
    22:00 +8°C° 0 mm 1 mps 764 mmHg 86%
    23:00 +7°C° 0 mm 1 mps 764 mmHg 87%

    Tomorrow, 26 June, Wednesday

    Time Temperature Precipitation Wind Pressure Humidity
    00:00 +7°C° 0 mm 1 mps 764 mmHg 87%
    01:00 +7°C° 0 mm 1 mps 764 mmHg 88%
    02:00 +6°C° 0 mm 1 mps 764 mmHg 88%
    03:00 +6°C° 0 mm 1 mps 764 mmHg 88%
    04:00 +5°C° 0 mm 2 mps 764 mmHg 88%
    05:00 +5°C° 0 mm 2 mps 764 mmHg 88%
    06:00 +5°C° 0 mm 2 mps 764 mmHg 87%
    07:00 +4°C° 0 mm 2 mps 765 mmHg 86%
    08:00 +7°C° 0 mm 1 mps 765 mmHg 80%
    09:00 +9°C° 0 mm 1 mps 765 mmHg 74%
    10:00 +10°C° 0 mm 1 mps 765 mmHg 68%
    11:00 +12°C° 0 mm 2 mps 764 mmHg 66%
    12:00 +13°C° 0 mm 2 mps 763 mmHg 63%
    13:00 +15°C° 0 mm 2 mps 763 mmHg 61%
    14:00 +15°C° 0 mm 2 mps 763 mmHg 65%
    15:00 +15°C° 0 mm 2 mps 762 mmHg 69%
    16:00 +15°C° 0 mm 2 mps 762 mmHg 74%
    17:00 +13°C° 0 mm 2 mps 762 mmHg 78%
    18:00 +10°C° 0 mm 2 mps 763 mmHg 83%
    19:00 +8°C° 0 mm 2 mps 763 mmHg 88%
    20:00 +8°C° 0 mm 2 mps 763 mmHg 88%
    21:00 +8°C° 0 mm 2 mps 763 mmHg 89%
    22:00 +7°C° 0 mm 2 mps 763 mmHg 89%
    23:00 +7°C° 0 mm 2 mps 763 mmHg 90%

    Day after tomorrow, 27 June, Thursday

    Time Temperature Precipitation Wind Pressure Humidity
    00:00 +7°C° 0 mm 2 mps 763 mmHg 90%
    01:00 +5°C° 0 mm 3 mps 763 mmHg 91%
    02:00 +5°C° 0 mm 3 mps 763 mmHg 91%
    03:00 +5°C° 0 mm 3 mps 763 mmHg 90%
    04:00 +5°C° 0 mm 3 mps 763 mmHg 90%
    05:00 +4°C° 0 mm 3 mps 763 mmHg 91%
    06:00 +4°C° 0 mm 3 mps 763 mmHg 91%
    07:00 +4°C° 0 mm 3 mps 763 mmHg 92%
    08:00 +7°C° 0 mm 3 mps 763 mmHg 87%
    09:00 +7°C° 0 mm 4 mps 763 mmHg 82%
    10:00 +10°C° 0 mm 4 mps 763 mmHg 77%
    11:00 +11°C° 0 mm 4 mps 763 mmHg 74%
    12:00 +13°C° 0 mm 4 mps 762 mmHg 70%
    13:00 +14°C° 0 mm 4 mps 762 mmHg 67%
    14:00 +14°C° 0 mm 4 mps 761 mmHg 69%
    15:00 +14°C° 0 mm 3 mps 761 mmHg 72%
    16:00 +14°C° 0 mm 3 mps 760 mmHg 74%
    17:00 +12°C° 0 mm 3 mps 761 mmHg 79%
    18:00 +11°C° 0 mm 3 mps 761 mmHg 84%
    19:00 +9°C° 0 mm 3 mps 761 mmHg 89%
    20:00 +9°C° 0 mm 3 mps 761 mmHg 90%
    21:00 +8°C° 0 mm 3 mps 761 mmHg 90%
    22:00 +8°C° 0 mm 3 mps 761 mmHg 91%
    23:00 +8°C° 0 mm 3 mps 761 mmHg 91%

    28 June, Friday

    Time Temperature Precipitation Wind Pressure Humidity
    00:00 +7°C° 0 mm 3 mps 761 mmHg 91%
    01:00 +7°C° 0 mm 3 mps 761 mmHg 91%
    02:00 +7°C° 0 mm 3 mps 761 mmHg 90%
    03:00 +6°C° 0 mm 4 mps 761 mmHg 89%
    04:00 +6°C° 0 mm 4 mps 760 mmHg 87%
    05:00 +5°C° 0 mm 4 mps 760 mmHg 88%
    06:00 +5°C° 0 mm 4 mps 760 mmHg 88%
    07:00 +5°C° 0 mm 4 mps 761 mmHg 89%
    08:00 +6°C° 0 mm 4 mps 761 mmHg 86%
    09:00 +8°C° 0 mm 5 mps 760 mmHg 83%
    10:00 +9°C° 0 mm 5 mps 760 mmHg 80%
    11:00 +12°C° 0 mm 5 mps 760 mmHg 77%
    12:00 +13°C° 0 mm 5 mps 759 mmHg 73%
    13:00 +14°C° 0 mm 5 mps 758 mmHg 70%
    14:00 +14°C° 0 mm 5 mps 757 mmHg 71%
    15:00 +14°C° 0 mm 5 mps 757 mmHg 73%
    16:00 +14°C° 0 mm 4 mps 756 mmHg 74%
    17:00 +13°C° 0 mm 4 mps 756 mmHg 79%
    18:00 +12°C° 0 mm 4 mps 756 mmHg 83%
    19:00 +10°C° 0 mm 4 mps 756 mmHg 88%
    20:00 +10°C° 0 mm 5 mps 756 mmHg 84%
    21:00 +10°C° 0 mm 6 mps 756 mmHg 81%
    22:00 +11°C° 0 mm 6 mps 755 mmHg 78%
    23:00 +11°C° 0 mm 6 mps 755 mmHg 79%

    29 June, Saturday

    Time Temperature Precipitation Wind Pressure Humidity
    00:00 +11°C° 0 mm 6 mps 754 mmHg 79%
    01:00 +11°C° 0 mm 6 mps 754 mmHg 80%
    02:00 +11°C° 0.2 mm 6 mps 753 mmHg 80%
    03:00 +11°C° 0.2 mm 6 mps 753 mmHg 79%
    04:00 +11°C° 0.2 mm 6 mps 752 mmHg 78%
    05:00 +11°C° 0.1 mm 6 mps 751 mmHg 78%
    06:00 +11°C° 0.1 mm 6 mps 751 mmHg 79%
    07:00 +11°C° 0.1 mm 7 mps 751 mmHg 79%
    08:00 +11°C° 1.4 mm 7 mps 750 mmHg 83%
    09:00 +11°C° 1.4 mm 8 mps 750 mmHg 88%
    10:00 +11°C° 1.4 mm 9 mps 749 mmHg 92%
    11:00 +11°C° 3 mm 9 mps 748 mmHg 93%
    12:00 +11°C° 3 mm 10 mps 748 mmHg 93%
    13:00 +11°C° 3 mm 10 mps 747 mmHg 94%
    14:00 +10°C° 3 mm 8 mps 747 mmHg 93%
    15:00 +9°C° 3 mm 6 mps 747 mmHg 93%
    16:00 +10°C° 3 mm 4 mps 746 mmHg 92%
    17:00 +8°C° 0.2 mm 4 mps 747 mmHg 92%
    18:00 +8°C° 0.2 mm 4 mps 747 mmHg 92%
    19:00 +7°C° 0.2 mm 4 mps 748 mmHg 92%
    20:00 +6°C° 0.1 mm 4 mps 748 mmHg 92%
    21:00 +7°C° 0.1 mm 3 mps 749 mmHg 92%
    22:00 +5°C° 0.1 mm 3 mps 749 mmHg 92%
    23:00 +5°C° 0 mm 3 mps 750 mmHg 93%

    30 June, Sunday

    Time Temperature Precipitation Wind Pressure Humidity
    00:00 +5°C° 0 mm 3 mps 750 mmHg 93%
    01:00 +5°C° 0 mm 4 mps 750 mmHg 93%
    02:00 +4°C° 0 mm 3 mps 751 mmHg 94%
    03:00 +4°C° 0 mm 3 mps 751 mmHg 96%
    04:00 +4°C° 0 mm 2 mps 751 mmHg 97%
    05:00 +4°C° 0 mm 2 mps 752 mmHg 96%
    06:00 +4°C° 0 mm 2 mps 753 mmHg 96%
    07:00 +3°C° 0 mm 2 mps 754 mmHg 96%
    08:00 +4°C° 0 mm 2 mps 755 mmHg 93%
    09:00 +5°C° 0 mm 3 mps 755 mmHg 89%
    10:00 +7°C° 0 mm 3 mps 755 mmHg 86%
    11:00 +8°C° 0 mm 3 mps 755 mmHg 81%
    12:00 +8°C° 0 mm 4 mps 755 mmHg 75%
    13:00 +10°C° 0 mm 4 mps 755 mmHg 69%
    14:00 +10°C° 0 mm 3 mps 755 mmHg 70%
    15:00 +9°C° 0 mm 3 mps 755 mmHg 71%
    16:00 +9°C° 0 mm 3 mps 755 mmHg 71%
    17:00 +9°C° 0 mm 2 mps 755 mmHg 71%
    18:00 +8°C° 0 mm 2 mps 756 mmHg 70%
    19:00 +8°C° 0 mm 2 mps 756 mmHg 69%
    20:00 +8°C° 0 mm 2 mps 756 mmHg 69%
    21:00 +8°C° 0 mm 2 mps 756 mmHg 70%
    22:00 +8°C° 0 mm 2 mps 756 mmHg 70%
    23:00 +7°C° 0 mm 2 mps 756 mmHg 72%
    Show more